Regional Weather Roundup
Issued by NWS Charleston, SC

Current Version | Previous Version | Graphics & Text | Print | Product List | Glossary On
Versions: 1 2 3 4 5 6 7 8 9 10 11 12 13 14 15 16 17 18 19 20 21 22 23 24 25 26 27 28 29 30 31 32 33 34 35 36 37 38 39 40 41 42 43 44 45 46 47 48 49 50
000
ASUS42 KCHS 181912
RWRCHS

Regional Weather Roundup
National Weather Service Charleston SC
200 PM EST SUN FEB 18 2018

NOTE: "fair" indicates few or no clouds below 12,000 feet with no
significant weather and/or obstructions to visibility.

Not all stations are quality controlled. Use data with caution,
especially dewpoint observations.

SCZ027-030-031-034>040-042>050-182000-
...Southeast South Carolina...

CITY           SKY/WX    TMP DP  RH WIND       PRES   REMARKS
N Charleston   CLOUDY    64  50  60 E13       30.30R
Waterfront Prk   N/A     60  53  77 NE16      30.16R
Mount Pleasant CLOUDY    63  50  63 NE6       30.30F
Johns Island   CLOUDY    63  52  67 NE16      30.30S
Pinopolis        N/A     63  55  77 E6        30.21F
Moncks Corner  RAIN      61  52  72 E6        30.30S
Summerville    RAIN      63  55  77 E3        30.30S
Beaufort MCAS  CLOUDY    66  62  87 SE12      30.27S
Beaufort Arpt  CLOUDY    63  59  88 E9        30.27S FOG
Hilton Head Is PTSUNNY   63  59  88 NE6       30.28S
Walterboro     DRIZZLE   63  55  77 NE6       30.29F
Allendale      MOCLDY    68  55  64 CALM      30.26S

...Southern Midlands and Pee Dee...

CITY           SKY/WX    TMP DP  RH WIND       PRES   REMARKS
Georgetown     CLOUDY    57  48  72 E13G21    30.33R
Kingstree      LGT RAIN  64  48  55 E7        30.30S
Orangeburg     CLOUDY    66  49  54 NE9       30.28F
Barnwell         N/A     68  54  60 E9        30.27F
Aiken          CLOUDY    64  48  55 SE8       30.30F
Manning        CLOUDY    63  32  31 MISG      30.29F
Columbia       PTSUNNY   68  48  48 NE7       30.27F
Sumter         CLOUDY    66  45  46 E7        30.27F
Florence       PTSUNNY   66  44  45 NE9       30.30F
Myrtle Beach   PTSUNNY   58  49  72 E13       30.33S
N Myrtle Beach CLOUDY    58  49  72 E12G21    30.32S

$$

GAZ063-065-086>088-099>101-113>116-118-119-134>141-150-182000-
...Southeast Georgia...

CITY           SKY/WX    TMP DP  RH WIND       PRES   REMARKS
Savannah Arpt  CLOUDY    72  63  73 E7        30.25F
Hunter AAF     PTSUNNY   71  64  79 E5        30.22F
Fort Stewart   PTSUNNY   71  62  73 E3        30.22F
Statesboro     CLOUDY    69  57  65 CALM      30.26F
Sylvania       CLOUDY    68  62  79 E5        30.27S
Claxton        CLOUDY    74  64  69 NE3       30.24F

...CSRA, Central and far Southeast Georgia...

CITY           SKY/WX    TMP DP  RH WIND       PRES   REMARKS
Thomson        CLOUDY    64  51  63 SE8       30.32F
Augusta-Bush   CLOUDY    70  49  47 E8        30.25F
Augusta-Daniel CLOUDY    67  48  50 NE8       30.27F
Swainsboro     CLOUDY    70  59  68 E5        30.25F
Vidalia        CLOUDY    72  63  73 CALM      30.24F
Eastman        CLOUDY    75  54  48 SE5       30.25F
Hazlehurst     MOCLDY    73  60  63 CALM      30.22F
Alma           CLOUDY    75  64  68 NE3       30.22F
Waycross       FAIR      80  60  48 W3        30.21F
Jesup          CLOUDY    73  63  68 CALM      30.24F
Baxley         CLOUDY    72  64  78 CALM      30.23F
Brunswick      PTSUNNY   77  61  57 NW3       30.24F
Saint Simons   FAIR      75  64  68 E9        30.23F

$$

SCZ027-028-034-036>038-045-046-048>050-GAZ119-141-182000-
...Lake and Supplemental Coastal Observations...

STATION/POSITION TIME  TEMP    WIND        PRES    WAVE   SWELL
                       AIR SEA DIR/SP/G            HT/PER HT/PER/DIR
                 (UTC) (F)     (DEG/KT/KT) (MB)    (FT/S) (FT/S/D)
Winyah Bay       1745   57      70/ 10     1027.0
Lake Murray      1820   63      80/  6/ 10 1025.1
ACE Basin NERRS  1745   67      10/  2     1025.0
Fort Pulaski     1848   63 59   90/  8/  8 1025.0S
Sapelo Island    1800   75     350/  6     1024.0

$$

ANZ835-935-AMZ111-154-330-350-352-354-370-450-454-472-182000-
...C-MAN and Buoy Observations...

STATION/POSITION TIME  TEMP    WIND        PRES    WAVE   SWELL
                       AIR SEA DIR/SP/G            HT/PER HT/PER/DIR
                 (UTC) (F)     (DEG/KT/KT) (MB)    (FT/S) (FT/S/D)
Buoy 41004       1850   65 68   50/ 17/ 21 1025.0S   4/ 4   2/130/10
Buoy 41008       1850   64 61   30/  4/  4 1024.0F   2/11   2/100/11
Folly Beach CMAN 1900   59      40/ 20/ 22 1026.4F
Capers Nearshore 1808   54 56   50/ 16/ 21 1025.6F
Fripp Nearshore  1808   58 57   90/  8/ 12 1024.6F


STATION/POSITION TIME  TEMP    WIND        PRES    WAVE   SWELL
                       AIR SEA DIR/SP/G            HT/PER HT/PER/DIR
                 (UTC) (F)     (DEG/KT/KT) (MB)    (FT/S) (FT/S/D)
5E St. Marys GA  1830      60                N/A     2/11   2/110/11
Frying Pan Buoy  1850   61 64   50/ 19/ 25 1026.3F   5/ 5   2/110/10
Buoy 41025       1850   52 72   20/ 23/ 33 1028.7    6/ 8   2/ 40/14
Cape Lookout NC  1800           40/ 23/ 26 1028.7R
Buoy 41002       1850   70 73   30/ 17/ 21 1023.7R   4/ 7   3/290/ 7
Buoy 41010       NOT AVBL
St Augustine FL  1900   61 60   90/  8/  8 1024.2F


$$




USA.gov is the U.S. government's official web portal to all federal, state and local government web resources and services.